Date String (YYYY-MM-DD hh:mm:ss) UTC,Instrument flags,Ambient pressure (hPa),Sample flow (lpm),Bypass flow (lpm),Sample temperature (°C),Ambient temperature (°C),ASC tube jacket temperature (°C),LED temperature (°C),Box temperature (°C),Sample RH (%),Span deviation,Mass concentration (μg/m³),Mass concentration (μg/m³),Mass concentration (μg/m³)
DateTimeUTC,F1_M11,P_M11,Q1_M11,Q2_M11,T1_M11,T2_M11,T3_M11,T4_M11,T5_M11,U1_M11,ZSPAN_M11,X0_M11,X2_M11,X1_M11
2022-10-02 07:00:00,,0828.8,4.99,0.00,30.0,28.5,00.0,38.8,31.8,20.4,0000.0,0004.68,0003.15,0002.53
2022-10-02 07:01:00,,0828.8,5.01,0.00,30.0,28.5,00.0,38.8,31.8,20.3,0000.0,0004.51,0003.12,0002.52
2022-10-02 07:02:00,,0828.8,5.00,0.00,30.0,28.5,00.0,38.8,31.9,20.3,0000.0,0004.34,0003.09,0002.51
2022-10-02 07:03:00,,0828.8,4.99,0.00,30.0,28.5,00.0,38.8,31.8,20.4,0000.0,0004.38,0003.08,0002.52
2022-10-02 07:04:00,,0828.8,5.01,0.00,30.0,28.5,00.0,38.8,31.9,20.4,0000.0,0005.03,0003.10,0002.51
2022-10-02 07:05:00,,0828.9,4.98,0.00,30.0,28.5,00.0,38.8,31.9,20.3,0000.0,0005.17,0003.11,0002.49
2022-10-02 07:06:00,,0828.9,5.01,0.00,30.0,28.5,00.0,38.8,31.9,20.2,0000.0,0005.20,0003.12,0002.49
2022-10-02 07:07:00,,0828.9,4.99,0.00,30.0,28.5,00.0,38.8,31.9,20.2,0000.0,0005.71,0003.08,0002.48
2022-10-02 07:08:00,,0828.9,4.99,0.00,30.0,28.4,00.0,38.8,31.8,20.1,0000.0,0005.74,0003.07,0002.48
2022-10-02 07:09:00,,0828.9,5.01,0.00,30.0,28.4,00.0,38.8,31.8,20.2,0000.0,0005.83,0003.10,0002.47
2022-10-02 07:10:00,,0828.9,4.99,0.00,30.0,28.4,00.0,38.8,31.8,20.3,0000.0,0005.90,0003.09,0002.45
2022-10-02 07:11:00,,0828.8,5.01,0.00,30.0,28.4,00.0,38.8,31.8,20.3,0000.0,0005.91,0003.05,0002.45
2022-10-02 07:12:00,,0828.8,5.00,0.00,30.0,28.4,00.0,38.8,31.8,20.5,0000.0,0005.99,0003.06,0002.44
2022-10-02 07:13:00,,0828.8,4.98,0.00,30.0,28.4,00.0,38.8,31.8,20.5,0000.0,0007.47,0003.08,0002.45
2022-10-02 07:14:00,,0829.3,5.01,0.00,30.0,28.4,00.0,38.8,31.8,20.5,0000.0,0007.50,0003.07,0002.44
2022-10-02 07:15:00,,0829.3,5.00,0.00,30.0,28.4,00.0,38.8,31.8,20.5,0000.0,0007.02,0003.00,0002.44
2022-10-02 07:16:00,,0829.2,4.99,0.00,30.0,28.4,00.0,38.8,31.8,20.4,0000.0,0006.86,0003.01,0002.45
2022-10-02 07:17:00,,0829.1,5.01,0.00,30.0,28.4,00.0,38.8,31.8,20.4,0000.0,0006.91,0003.02,0002.45
2022-10-02 07:18:00,,0829.1,5.01,0.00,30.0,28.4,00.0,38.8,31.7,20.4,0000.0,0006.67,0003.02,0002.45
2022-10-02 07:19:00,,0829.2,5.00,0.00,30.0,28.4,00.0,38.8,31.8,20.2,0000.0,0006.35,0003.04,0002.46
2022-10-02 07:20:00,,0829.2,4.99,0.00,30.0,28.4,00.0,38.8,31.8,20.1,0000.0,0006.31,0003.02,0002.46
2022-10-02 07:21:00,,0829.3,5.01,0.00,30.0,28.4,00.0,38.8,31.7,20.1,0000.0,0006.35,0003.03,0002.47
2022-10-02 07:22:00,,0829.3,5.01,0.00,30.0,28.4,00.0,38.8,31.7,20.1,0000.0,0006.54,0003.08,0002.48
2022-10-02 07:23:00,,0829.3,4.99,0.00,30.0,28.4,00.0,38.8,31.8,20.0,0000.0,0006.57,0003.11,0002.48
2022-10-02 07:24:00,,0829.4,5.00,0.00,30.0,28.4,00.0,38.8,31.8,20.1,0000.0,0005.19,0003.09,0002.50
2022-10-02 07:25:00,,0829.2,5.01,0.00,30.0,28.4,00.0,38.8,31.7,20.0,0000.0,0005.62,0003.15,0002.52
2022-10-02 07:26:00,,0828.8,4.99,0.00,30.0,28.4,00.0,38.8,31.7,19.9,0000.0,0006.25,0003.18,0002.55
2022-10-02 07:27:00,,0828.7,5.02,0.00,30.0,28.4,00.0,38.8,31.8,20.0,0000.0,0006.08,0003.17,0002.56
2022-10-02 07:28:00,,0828.7,4.99,0.00,30.0,28.4,00.0,38.8,31.7,20.0,0000.0,0006.02,0003.17,0002.58
2022-10-02 07:29:00,,0828.7,5.00,0.00,30.0,28.4,00.0,38.8,31.7,20.1,0000.0,0005.90,0003.17,0002.59
2022-10-02 07:30:00,,0828.7,5.01,0.00,30.0,28.4,00.0,38.8,31.8,20.3,0000.0,0006.09,0003.20,0002.60
2022-10-02 07:31:00,,0828.9,4.99,0.00,30.0,28.4,00.0,38.8,31.7,20.2,0000.0,0007.10,0003.21,0002.62
2022-10-02 07:32:00,,0829.3,5.01,0.00,30.0,28.4,00.0,38.8,31.8,20.4,0000.0,0007.30,0003.22,0002.64
2022-10-02 07:33:00,,0829.2,4.99,0.00,30.0,28.4,00.0,38.8,31.8,20.5,0000.0,0007.16,0003.22,0002.64
2022-10-02 07:34:00,,0828.9,5.00,0.00,30.0,28.4,00.0,38.8,31.8,21.2,0000.0,0007.31,0003.23,0002.66
2022-10-02 07:35:00,,0828.8,5.01,0.00,30.0,28.4,00.0,38.8,31.7,21.1,0000.0,0007.30,0003.23,0002.68
2022-10-02 07:36:00,,0829.1,4.99,0.00,30.0,28.4,00.0,38.8,31.8,21.1,0000.0,0006.65,0003.20,0002.68
2022-10-02 07:37:00,,0829.3,5.01,0.00,30.0,28.4,00.0,38.8,31.8,20.8,0000.0,0006.02,0003.20,0002.70
2022-10-02 07:38:00,,0829.3,5.00,0.00,30.0,28.4,00.0,38.8,31.8,21.0,0000.0,0006.02,0003.21,0002.71
2022-10-02 07:39:00,,0829.2,4.99,0.00,30.0,28.4,00.0,38.8,31.7,21.1,0000.0,0006.06,0003.22,0002.73
2022-10-02 07:40:00,,0829.3,5.01,0.00,30.0,28.4,00.0,38.8,31.8,21.1,0000.0,0006.29,0003.27,0002.76
2022-10-02 07:41:00,,0829.1,4.99,0.00,30.0,28.4,00.0,38.8,31.8,21.3,0000.0,0006.63,0003.26,0002.77
2022-10-02 07:42:00,,0829.3,5.00,0.00,30.0,28.4,00.0,38.8,31.8,21.7,0000.0,0006.09,0003.31,0002.80
2022-10-02 07:43:00,,0829.3,5.01,0.00,30.0,28.4,00.0,38.8,31.8,22.1,0000.0,0005.86,0003.33,0002.84
2022-10-02 07:44:00,,0829.2,5.00,0.00,30.0,28.4,00.0,38.8,31.8,22.4,0000.0,0005.74,0003.33,0002.88
2022-10-02 07:45:00,,0829.3,4.99,0.00,30.0,28.4,00.0,38.8,31.8,22.3,0000.0,0005.54,0003.33,0002.92
2022-10-02 07:46:00,,0829.0,5.01,0.00,30.0,28.4,00.0,38.8,31.8,21.5,0000.0,0005.65,0003.35,0002.93
2022-10-02 07:47:00,,0828.8,5.01,0.00,30.0,28.4,00.0,38.8,31.8,21.2,0000.0,0005.81,0003.34,0002.92
2022-10-02 07:48:00,,0828.7,4.99,0.00,30.0,28.4,00.0,38.8,31.8,21.1,0000.0,0006.53,0003.35,0002.90
2022-10-02 07:49:00,,0829.0,5.01,0.00,30.0,28.4,00.0,38.8,31.7,21.0,0000.0,0007.25,0003.37,0002.89
2022-10-02 07:50:00,,0829.3,4.99,0.00,30.0,28.4,00.0,38.7,31.7,21.0,0000.0,0007.61,0003.39,0002.89
2022-10-02 07:51:00,,0829.3,5.01,0.00,30.0,28.4,00.0,38.7,31.8,21.2,0000.0,0007.55,0003.37,0002.89
2022-10-02 07:52:00,,0829.3,4.99,0.00,30.0,28.4,00.0,38.7,31.7,21.1,0000.0,0007.30,0003.38,0002.91
2022-10-02 07:53:00,,0828.8,5.00,0.00,30.0,28.4,00.0,38.8,31.8,20.7,0000.0,0007.06,0003.34,0002.89
2022-10-02 07:54:00,,0828.8,5.00,0.00,30.0,28.4,00.0,38.8,31.8,20.3,0000.0,0006.95,0003.31,0002.87
2022-10-02 07:55:00,,0828.8,5.00,0.00,30.0,28.4,00.0,38.8,31.7,20.3,0000.0,0007.05,0003.32,0002.85
2022-10-02 07:56:00,,0828.8,5.01,0.00,30.0,28.4,00.0,38.7,31.8,21.0,0000.0,0007.23,0003.33,0002.83
2022-10-02 07:57:00,,0828.8,4.99,0.00,29.9,28.4,00.0,38.7,31.8,21.3,0000.0,0007.29,0003.34,0002.84
2022-10-02 07:58:00,,0828.9,5.01,0.00,29.9,28.4,00.0,38.7,31.7,21.7,0000.0,0007.30,0003.37,0002.87
2022-10-02 07:59:00,,0828.9,5.00,0.00,29.9,28.4,00.0,38.7,31.7,21.8,0000.0,0006.54,0003.38,0002.91
